Luverne, MN

5:57 PM CST on December 17, 2017 (GMT -0600)
Luverne

Weather History for KLYV - December, 2011

Change the Weather History Date:

Monday, December 26, 2011

  Actual Average (KPQN) Record (KPQN)
Temperature  
Mean Temperature 37 °F -  
Max Temperature 51 °F 23 °F 50 °F (2011)
Min Temperature 23 °F 8 °F -20 °F (1996)
Degree Days  
Heating Degree Days 28    
Moisture  
Dew Point 22 °F    
Average Humidity 55    
Maximum Humidity 80    
Minimum Humidity 28    
Precipitation  
Precipitation 0.00 in - - ()
Sea Level Pressure  
Sea Level Pressure 29.88 in    
Wind  
Wind Speed 14 mph (SW)    
Max Wind Speed 26 mph    
Max Gust Speed 32 mph    
Visibility 10 miles    
Events      
Averages and records for this station are not official NWS values.
T = Trace of Precipitation, MM = Missing Value Source: NWS Daily Summary

Daily Weather History Graph

Daily Weather History Graph

Search for Another Location

Airport or City:

Trip Planner

Search our weather history database for the weather conditions in past years. The results will help you decide how hot, cold, wet, or windy it might be!

Date:

Astronomy

Dec. 26, 2011 Rise Set
Actual Time 7:57 AM CST 4:53 PM CST
Civil Twilight 7:24 AM CST 5:26 PM CST
Nautical Twilight 6:47 AM CST 6:02 PM CST
Astronomical Twilight 6:13 AM CST 6:37 PM CST
Moon 9:14 AM CST (12/26) 7:27 PM CST (12/26)
Length of Visible Light 10h 02m
Length of Day
8h 56m
Waxing Crescent, 5% of the Moon is Illuminated
Dec 26
Waxing Crescent
Jan 1
First Quarter
Jan 9
Full
Jan 16
Last Quarter
Jan 23
New

Hourly Weather History & Observations

Time (CST) Temp. Windchill Dew Point Humidity Pressure Visibility Wind Dir Wind Speed Gust Speed Precip Events Conditions
12:16 AM 23.0 °F 15.8 °F 17.6 °F 80% 30.12 in 10.0 mi South 5.8 mph - N/A   Clear
12:35 AM 26.6 °F 20.0 °F 19.4 °F 74% 30.12 in 10.0 mi South 5.8 mph - N/A   Clear
12:55 AM 26.6 °F 16.8 °F 21.2 °F 80% 30.12 in 10.0 mi South 10.4 mph - N/A   Clear
1:16 AM 24.8 °F 16.9 °F 19.4 °F 80% 30.10 in 10.0 mi South 6.9 mph - N/A   Clear
1:36 AM 26.6 °F 16.8 °F 21.2 °F 80% 30.09 in 10.0 mi South 10.4 mph - N/A   Clear
1:55 AM 28.4 °F 19.1 °F 21.2 °F 74% 30.07 in 10.0 mi South 10.4 mph - N/A   Clear
2:15 AM 28.4 °F 19.7 °F 21.2 °F 74% 30.06 in 10.0 mi South 9.2 mph - N/A   Clear
2:35 AM 28.4 °F 18.5 °F 21.2 °F 74% 30.05 in 10.0 mi South 11.5 mph - N/A   Clear
2:56 AM 28.4 °F 18.0 °F 21.2 °F 74% 30.04 in 10.0 mi South 12.7 mph - N/A   Clear
3:15 AM 28.4 °F 17.5 °F 21.2 °F 74% 30.02 in 10.0 mi South 13.8 mph - N/A   Clear
3:35 AM 28.4 °F 18.0 °F 21.2 °F 74% 30.01 in 10.0 mi South 12.7 mph - N/A   Clear
3:56 AM 30.2 °F 21.3 °F 23.0 °F 75% 29.99 in 10.0 mi South 10.4 mph - N/A   Clear
4:16 AM 32.0 °F 21.6 °F 23.0 °F 69% 29.97 in 10.0 mi South 15.0 mph - N/A   Clear
4:35 AM 32.0 °F 21.2 °F 23.0 °F 69% 29.97 in 10.0 mi SSW 16.1 mph - N/A   Clear
4:56 AM 32.0 °F 21.6 °F 23.0 °F 69% 29.95 in 10.0 mi South 15.0 mph - N/A   Clear
5:15 AM 30.2 °F 19.8 °F 23.0 °F 75% 29.93 in 10.0 mi South 13.8 mph - N/A   Clear
5:36 AM 30.2 °F 20.8 °F 23.0 °F 75% 29.91 in 10.0 mi South 11.5 mph - N/A   Clear
6:15 AM 32.0 °F 20.5 °F 24.8 °F 75% 29.90 in 10.0 mi SSW 18.4 mph 23.0 mph N/A   Clear
6:36 AM 33.8 °F 22.5 °F 24.8 °F 70% 29.90 in 10.0 mi SSW 19.6 mph - N/A   Clear
6:56 AM 33.8 °F 22.2 °F 24.8 °F 70% 29.89 in 10.0 mi SSW 20.7 mph 24.2 mph N/A   Clear
7:15 AM 33.8 °F 21.6 °F 24.8 °F 70% 29.86 in 10.0 mi South 23.0 mph - N/A   Clear
7:36 AM 33.8 °F 21.3 °F 24.8 °F 70% 29.85 in 10.0 mi SSW 24.2 mph 28.8 mph N/A   Clear
7:56 AM 33.8 °F 22.2 °F 23.0 °F 65% 29.85 in 10.0 mi SSW 20.7 mph 28.8 mph N/A   Clear
8:15 AM 33.8 °F 22.5 °F 23.0 °F 65% 29.84 in 10.0 mi SSW 19.6 mph 25.3 mph N/A   Clear
8:36 AM 33.8 °F 23.2 °F 23.0 °F 65% 29.86 in 10.0 mi SW 17.3 mph 23.0 mph N/A   Clear
8:56 AM 33.8 °F 22.2 °F 23.0 °F 65% 29.85 in 10.0 mi SSW 20.7 mph - N/A   Clear
9:15 AM 35.6 °F 23.4 °F 23.0 °F 60% 29.83 in 10.0 mi SSW 25.3 mph 29.9 mph N/A   Clear
9:36 AM 35.6 °F 23.7 °F 23.0 °F 60% 29.83 in 10.0 mi SSW 24.2 mph 32.2 mph N/A   Clear
9:56 AM 37.4 °F 25.6 °F 23.0 °F 56% 29.84 in 10.0 mi SSW 26.5 mph 32.2 mph N/A   Clear
10:15 AM 39.2 °F 28.5 °F 23.0 °F 52% 29.84 in 10.0 mi SW 24.2 mph 31.1 mph N/A   Clear
10:36 AM 41.0 °F 30.9 °F 23.0 °F 49% 29.84 in 10.0 mi SSW 24.2 mph 28.8 mph N/A   Clear
10:55 AM 42.8 °F 35.1 °F 23.0 °F 46% 29.84 in 10.0 mi SW 16.1 mph - N/A   Clear
11:16 AM 44.6 °F 36.4 °F 21.2 °F 39% 29.84 in 10.0 mi SW 20.7 mph 29.9 mph N/A   Clear
11:35 AM 46.4 °F 38.1 °F 21.2 °F 37% 29.83 in 10.0 mi SW 24.2 mph 32.2 mph N/A   Clear
11:56 AM 46.4 °F 38.3 °F 21.2 °F 37% 29.81 in 10.0 mi WSW 23.0 mph 27.6 mph N/A   Clear
12:15 PM 48.2 °F - 23.0 °F 37% 29.81 in 10.0 mi WSW 19.6 mph 26.5 mph N/A   Clear
12:36 PM 50.0 °F - 21.2 °F 32% 29.80 in 10.0 mi WSW 20.7 mph 24.2 mph N/A   Clear
12:55 PM 50.0 °F - 21.2 °F 32% 29.80 in 10.0 mi West 18.4 mph 21.9 mph N/A   Clear
1:16 PM 51.8 °F - 21.2 °F 30% 29.80 in 10.0 mi West 16.1 mph - N/A   Clear
1:35 PM 51.8 °F - 21.2 °F 30% 29.79 in 10.0 mi WNW 13.8 mph - N/A   Clear
1:56 PM 51.8 °F - 19.4 °F 28% 29.79 in 10.0 mi WNW 15.0 mph 23.0 mph N/A   Clear
2:16 PM 51.8 °F - 21.2 °F 30% 29.78 in 10.0 mi WNW 12.7 mph 18.4 mph N/A   Clear
2:35 PM 51.8 °F - 21.2 °F 30% 29.78 in 10.0 mi WNW 13.8 mph - N/A   Clear
2:56 PM 51.8 °F - 21.2 °F 30% 29.79 in 10.0 mi West 13.8 mph - N/A   Scattered Clouds
3:16 PM 50.0 °F - 21.2 °F 32% 29.79 in 10.0 mi WNW 12.7 mph - N/A   Mostly Cloudy
3:35 PM 50.0 °F - 21.2 °F 32% 29.80 in 10.0 mi West 10.4 mph - N/A   Overcast
3:56 PM 48.2 °F - 21.2 °F 34% 29.80 in 10.0 mi West 9.2 mph - N/A   Scattered Clouds
4:15 PM 46.4 °F 42.4 °F 21.2 °F 37% 29.80 in 10.0 mi West 8.1 mph - N/A   Clear
4:36 PM 42.8 °F 37.0 °F 21.2 °F 42% 29.79 in 10.0 mi WSW 10.4 mph - N/A   Clear
4:56 PM 37.4 °F 30.3 °F 21.2 °F 52% 29.80 in 10.0 mi WSW 10.4 mph - N/A   Clear
5:15 PM 37.4 °F 30.8 °F 21.2 °F 52% 29.80 in 10.0 mi West 9.2 mph - N/A   Clear
5:36 PM 42.8 °F 35.4 °F 19.4 °F 39% 29.82 in 10.0 mi West 15.0 mph - N/A   Clear
5:56 PM 39.2 °F 32.0 °F 19.4 °F 45% 29.82 in 10.0 mi West 11.5 mph - N/A   Clear
6:15 PM 37.4 °F 29.3 °F 19.4 °F 48% 29.81 in 10.0 mi West 12.7 mph - N/A   Clear
6:36 PM 39.2 °F 31.2 °F 19.4 °F 45% 29.82 in 10.0 mi West 13.8 mph - N/A   Clear
6:55 PM 41.0 °F 32.2 °F 19.4 °F 42% 29.83 in 10.0 mi West 18.4 mph 23.0 mph N/A   Clear
7:15 PM 41.0 °F 32.8 °F 19.4 °F 42% 29.84 in 10.0 mi West 16.1 mph - N/A   Scattered Clouds
7:36 PM 42.8 °F 35.1 °F 21.2 °F 42% 29.84 in 10.0 mi West 16.1 mph - N/A   Overcast
7:55 PM 42.8 °F 35.1 °F 23.0 °F 46% 29.84 in 10.0 mi West 16.1 mph - N/A   Overcast
8:16 PM 42.8 °F 35.1 °F 24.8 °F 49% 29.84 in 10.0 mi West 16.1 mph - N/A   Overcast
8:36 PM 42.8 °F 34.8 °F 26.6 °F 53% 29.84 in 10.0 mi WNW 17.3 mph 20.7 mph N/A   Scattered Clouds
8:55 PM 42.8 °F 35.1 °F 26.6 °F 53% 29.84 in 10.0 mi WNW 16.1 mph - N/A   Scattered Clouds
9:16 PM 41.0 °F 32.8 °F 26.6 °F 57% 29.85 in 10.0 mi WNW 16.1 mph - N/A   Clear
9:35 PM 37.4 °F 28.5 °F 26.6 °F 65% 29.85 in 10.0 mi WNW 15.0 mph - N/A   Clear
9:56 PM 39.2 °F 30.8 °F 26.6 °F 61% 29.85 in 10.0 mi WNW 15.0 mph 20.7 mph N/A   Clear
10:16 PM 41.0 °F 33.1 °F 28.4 °F 61% 29.85 in 10.0 mi NW 15.0 mph - N/A   Mostly Cloudy
10:35 PM 42.8 °F 35.1 °F 30.2 °F 61% 29.86 in 10.0 mi NW 16.1 mph 27.6 mph N/A   Overcast
10:56 PM 42.8 °F 35.4 °F 28.4 °F 57% 29.86 in 10.0 mi NW 15.0 mph 23.0 mph N/A   Overcast
11:15 PM 41.0 °F 33.9 °F 28.4 °F 61% 29.85 in 10.0 mi NW 12.7 mph 17.3 mph N/A   Scattered Clouds
11:36 PM 39.2 °F 31.2 °F 28.4 °F 65% 29.85 in 10.0 mi NW 13.8 mph 20.7 mph N/A   Clear
11:56 PM 39.2 °F 29.8 °F 28.4 °F 65% 29.86 in 10.0 mi NW 18.4 mph 27.6 mph N/A   Clear